Year,Month,Day,Hour,Minute,Value (Times are PST for temperature in C)
2014,04,11,00,00,9.50
2014,04,11,00,01,9.50
2014,04,11,00,02,9.50
2014,04,11,00,03,9.50
2014,04,11,00,04,9.50
2014,04,11,00,05,9.50
2014,04,11,00,06,9.40
2014,04,11,00,07,9.40
2014,04,11,00,08,9.40
2014,04,11,00,09,9.40
2014,04,11,00,10,9.40
2014,04,11,00,11,9.40
2014,04,11,00,12,9.40
2014,04,11,00,13,9.40
2014,04,11,00,14,9.40
2014,04,11,00,15,9.40
2014,04,11,00,16,9.40
2014,04,11,00,17,9.40
2014,04,11,00,18,9.40
2014,04,11,00,19,9.40
2014,04,11,00,20,9.40
2014,04,11,00,21,9.40
2014,04,11,00,22,9.40
2014,04,11,00,23,9.40
2014,04,11,00,24,9.40
2014,04,11,00,25,9.40
2014,04,11,00,26,9.40
2014,04,11,00,27,9.40
2014,04,11,00,28,9.40
2014,04,11,00,29,9.30
2014,04,11,00,30,9.30
2014,04,11,00,31,9.30
2014,04,11,00,32,9.30
2014,04,11,00,33,9.30
2014,04,11,00,34,9.30
2014,04,11,00,35,9.30
2014,04,11,00,36,9.30
2014,04,11,00,37,9.20
2014,04,11,00,38,9.20
2014,04,11,00,39,9.20
2014,04,11,00,40,9.20
2014,04,11,00,41,9.20
2014,04,11,00,42,9.20
2014,04,11,00,43,9.20
2014,04,11,00,44,9.20
2014,04,11,00,45,9.20
2014,04,11,00,46,9.20
2014,04,11,00,47,9.20
2014,04,11,00,48,9.20
2014,04,11,00,49,9.20
2014,04,11,00,50,9.20
2014,04,11,00,51,9.20
2014,04,11,00,52,9.20
2014,04,11,00,53,9.20
2014,04,11,00,54,9.10
2014,04,11,00,55,9.10
2014,04,11,00,56,9.10
2014,04,11,00,57,9.10
2014,04,11,00,58,9.10
2014,04,11,00,59,9.10
2014,04,11,01,00,9.10
2014,04,11,01,01,9.10
2014,04,11,01,02,9.10
2014,04,11,01,03,9.10
2014,04,11,01,04,9.10
2014,04,11,01,05,9.10
2014,04,11,01,06,9.10
2014,04,11,01,07,9.10
2014,04,11,01,08,9.10
2014,04,11,01,09,9.10
2014,04,11,01,10,9.10
2014,04,11,01,11,9.10
2014,04,11,01,12,9.10
2014,04,11,01,13,9.10
2014,04,11,01,14,9.10
2014,04,11,01,15,9.10
2014,04,11,01,16,9.10
2014,04,11,01,17,9.10
2014,04,11,01,18,9.10
2014,04,11,01,19,9.10
2014,04,11,01,20,9.10
2014,04,11,01,21,9.00
2014,04,11,01,22,9.00
2014,04,11,01,23,9.00
2014,04,11,01,24,9.00
2014,04,11,01,25,9.00
2014,04,11,01,26,9.00
2014,04,11,01,27,9.00
2014,04,11,01,28,8.90
2014,04,11,01,29,8.90
2014,04,11,01,30,8.90
2014,04,11,01,31,8.90
2014,04,11,01,32,8.90
2014,04,11,01,33,8.80
2014,04,11,01,34,8.80
2014,04,11,01,35,8.80
2014,04,11,01,36,8.70
2014,04,11,01,37,8.70
2014,04,11,01,38,8.70
2014,04,11,01,39,8.70
2014,04,11,01,40,8.70
2014,04,11,01,41,8.70
2014,04,11,01,42,8.70
2014,04,11,01,43,8.60
2014,04,11,01,44,8.60
2014,04,11,01,45,8.60
2014,04,11,01,46,8.50
2014,04,11,01,47,8.50
2014,04,11,01,48,8.50
2014,04,11,01,49,8.50
2014,04,11,01,50,8.40
2014,04,11,01,51,8.40
2014,04,11,01,52,8.40
2014,04,11,01,53,8.30
2014,04,11,01,54,8.30
2014,04,11,01,55,8.30
2014,04,11,01,56,8.20
2014,04,11,01,57,8.20
2014,04,11,01,58,8.20
2014,04,11,01,59,8.20
2014,04,11,02,00,8.20
2014,04,11,02,01,8.10
2014,04,11,02,02,8.10
2014,04,11,02,03,8.10
2014,04,11,02,04,8.00
2014,04,11,02,05,8.00
2014,04,11,02,06,8.00
2014,04,11,02,07,7.90
2014,04,11,02,08,7.90
2014,04,11,02,09,7.90
2014,04,11,02,10,7.80
2014,04,11,02,11,7.80
2014,04,11,02,12,7.80
2014,04,11,02,13,7.80
2014,04,11,02,14,7.80
2014,04,11,02,15,7.80
2014,04,11,02,16,7.70
2014,04,11,02,17,7.70
2014,04,11,02,18,7.70
2014,04,11,02,19,7.70
2014,04,11,02,20,7.60
2014,04,11,02,21,7.60
2014,04,11,02,22,7.60
2014,04,11,02,23,7.60
2014,04,11,02,24,7.60
2014,04,11,02,25,7.60
2014,04,11,02,26,7.60
2014,04,11,02,27,7.60
2014,04,11,02,28,7.60
2014,04,11,02,29,7.60
2014,04,11,02,30,7.50
2014,04,11,02,31,7.50
2014,04,11,02,32,7.50
2014,04,11,02,33,7.50
2014,04,11,02,34,7.50
2014,04,11,02,35,7.50
2014,04,11,02,36,7.40
2014,04,11,02,37,7.40
2014,04,11,02,38,7.40
2014,04,11,02,39,7.40
2014,04,11,02,40,7.30
2014,04,11,02,41,7.30
2014,04,11,02,42,7.30
2014,04,11,02,43,7.40
2014,04,11,02,44,7.40
2014,04,11,02,45,7.40
2014,04,11,02,46,7.40
2014,04,11,02,47,7.30
2014,04,11,02,48,7.30
2014,04,11,02,49,7.30
2014,04,11,02,50,7.30
2014,04,11,02,51,7.30
2014,04,11,02,52,7.30
2014,04,11,02,53,7.30
2014,04,11,02,54,7.20
2014,04,11,02,55,7.20
2014,04,11,02,56,7.20
2014,04,11,02,57,7.20
2014,04,11,02,58,7.20
2014,04,11,02,59,7.10
2014,04,11,03,00,7.10
2014,04,11,03,01,7.10
2014,04,11,03,02,7.10
2014,04,11,03,03,7.10
2014,04,11,03,04,7.00
2014,04,11,03,05,7.00
2014,04,11,03,06,7.00
2014,04,11,03,07,6.90
2014,04,11,03,08,6.90
2014,04,11,03,09,6.80
2014,04,11,03,10,6.80
2014,04,11,03,11,6.70
2014,04,11,03,12,6.70
2014,04,11,03,13,6.60
2014,04,11,03,14,6.60
2014,04,11,03,15,6.60
2014,04,11,03,16,6.50
2014,04,11,03,17,6.40
2014,04,11,03,18,6.40
2014,04,11,03,19,6.40
2014,04,11,03,20,6.40
2014,04,11,03,21,6.30
2014,04,11,03,22,6.30
2014,04,11,03,23,6.30
2014,04,11,03,24,6.20
2014,04,11,03,25,6.20
2014,04,11,03,26,6.20
2014,04,11,03,27,6.20
2014,04,11,03,28,6.20
2014,04,11,03,29,6.20
2014,04,11,03,30,6.20
2014,04,11,03,31,6.10
2014,04,11,03,32,6.10
2014,04,11,03,33,6.10
2014,04,11,03,34,6.10
2014,04,11,03,35,6.10
2014,04,11,03,36,6.00
2014,04,11,03,37,6.00
2014,04,11,03,38,6.00
2014,04,11,03,39,6.00
2014,04,11,03,40,6.00
2014,04,11,03,41,6.00
2014,04,11,03,42,6.00
2014,04,11,03,43,6.00
2014,04,11,03,44,6.00
2014,04,11,03,45,6.00
2014,04,11,03,46,6.00
2014,04,11,03,47,6.00
2014,04,11,03,48,5.90
2014,04,11,03,49,5.90
2014,04,11,03,50,5.80
2014,04,11,03,51,5.80
2014,04,11,03,52,5.70
2014,04,11,03,53,5.70
2014,04,11,03,54,5.70
2014,04,11,03,55,5.70
2014,04,11,03,56,5.70
2014,04,11,03,57,5.70
2014,04,11,03,58,5.70
2014,04,11,03,59,5.70
2014,04,11,04,00,5.60
2014,04,11,04,01,5.60
2014,04,11,04,02,5.70
2014,04,11,04,03,5.70
2014,04,11,04,04,5.70
2014,04,11,04,05,5.70
2014,04,11,04,06,5.60
2014,04,11,04,07,5.60
2014,04,11,04,08,5.60
2014,04,11,04,09,5.60
2014,04,11,04,10,5.60
2014,04,11,04,11,5.50
2014,04,11,04,12,5.50
2014,04,11,04,13,5.50
2014,04,11,04,14,5.40
2014,04,11,04,15,5.40
2014,04,11,04,16,5.40
2014,04,11,04,17,5.30
2014,04,11,04,18,5.30
2014,04,11,04,19,5.30
2014,04,11,04,20,5.30
2014,04,11,04,21,5.30
2014,04,11,04,22,5.30
2014,04,11,04,23,5.20
2014,04,11,04,24,5.20
2014,04,11,04,25,5.20
2014,04,11,04,26,5.20
2014,04,11,04,27,5.10
2014,04,11,04,28,5.10
2014,04,11,04,29,5.10
2014,04,11,04,30,5.10
2014,04,11,04,31,5.10
2014,04,11,04,32,5.10
2014,04,11,04,33,5.10
2014,04,11,04,34,5.10
2014,04,11,04,35,5.10
2014,04,11,04,36,5.10
2014,04,11,04,37,5.10
2014,04,11,04,38,5.10
2014,04,11,04,39,5.10
2014,04,11,04,40,5.10
2014,04,11,04,41,5.10
2014,04,11,04,42,5.10
2014,04,11,04,43,5.10
2014,04,11,04,44,5.10
2014,04,11,04,45,5.10
2014,04,11,04,46,5.10
2014,04,11,04,47,5.10
2014,04,11,04,48,5.10
2014,04,11,04,49,5.10
2014,04,11,04,50,5.10
2014,04,11,04,51,5.10
2014,04,11,04,52,5.10
2014,04,11,04,53,5.10
2014,04,11,04,54,5.10
2014,04,11,04,55,5.10
2014,04,11,04,56,5.10
2014,04,11,04,57,5.10
2014,04,11,04,58,5.10
2014,04,11,04,59,5.10
2014,04,11,05,00,5.10
2014,04,11,05,01,5.10
2014,04,11,05,02,5.20
2014,04,11,05,03,5.20
2014,04,11,05,04,5.30
2014,04,11,05,05,5.30
2014,04,11,05,06,5.30
2014,04,11,05,07,5.30
2014,04,11,05,08,5.30
2014,04,11,05,09,5.30
2014,04,11,05,10,5.30
2014,04,11,05,11,5.30
2014,04,11,05,12,5.30
2014,04,11,05,13,5.30
2014,04,11,05,14,5.30
2014,04,11,05,15,5.30
2014,04,11,05,16,5.40
2014,04,11,05,17,5.40
2014,04,11,05,18,5.40
2014,04,11,05,19,5.50
2014,04,11,05,20,5.50
2014,04,11,05,21,5.50
2014,04,11,05,22,5.50
2014,04,11,05,23,5.50
2014,04,11,05,24,5.50
2014,04,11,05,25,5.40
2014,04,11,05,26,5.40
2014,04,11,05,27,5.40
2014,04,11,05,28,5.40
2014,04,11,05,29,5.40
2014,04,11,05,30,5.40
2014,04,11,05,31,5.40
2014,04,11,05,32,5.40
2014,04,11,05,33,5.40
2014,04,11,05,34,5.50
2014,04,11,05,35,5.50
2014,04,11,05,36,5.50
2014,04,11,05,37,5.50
2014,04,11,05,38,5.50
2014,04,11,05,39,5.50
2014,04,11,05,40,5.50
2014,04,11,05,41,5.50
2014,04,11,05,42,5.50
2014,04,11,05,43,5.50
2014,04,11,05,44,5.50
2014,04,11,05,45,5.50
2014,04,11,05,46,5.50
2014,04,11,05,47,5.50
2014,04,11,05,48,5.50
2014,04,11,05,49,5.50
2014,04,11,05,50,5.60
2014,04,11,05,51,5.60
2014,04,11,05,52,5.60
2014,04,11,05,53,5.70
2014,04,11,05,54,5.70
2014,04,11,05,55,5.70
2014,04,11,05,56,5.70
2014,04,11,05,57,5.70
2014,04,11,05,58,5.80
2014,04,11,05,59,5.80
2014,04,11,06,00,5.80
2014,04,11,06,01,5.90
2014,04,11,06,02,5.90
2014,04,11,06,03,5.90
2014,04,11,06,04,5.90
2014,04,11,06,05,5.90
2014,04,11,06,06,6.00
2014,04,11,06,07,6.00
2014,04,11,06,08,6.00
2014,04,11,06,09,6.00
2014,04,11,06,10,6.00
2014,04,11,06,11,6.00
2014,04,11,06,12,6.00
2014,04,11,06,13,6.10
2014,04,11,06,14,6.10
2014,04,11,06,15,6.10
2014,04,11,06,16,6.10
2014,04,11,06,17,6.10
2014,04,11,06,18,6.10
2014,04,11,06,19,6.20
2014,04,11,06,20,6.20
2014,04,11,06,21,6.20
2014,04,11,06,22,6.20
2014,04,11,06,23,6.20
2014,04,11,06,24,6.30
2014,04,11,06,25,6.30
2014,04,11,06,26,6.30
2014,04,11,06,27,6.40
2014,04,11,06,28,6.40
2014,04,11,06,29,6.40
2014,04,11,06,30,6.40
2014,04,11,06,31,6.40
2014,04,11,06,32,6.40
2014,04,11,06,33,6.40
2014,04,11,06,34,6.40
2014,04,11,06,35,6.40
2014,04,11,06,36,6.40
2014,04,11,06,37,6.40
2014,04,11,06,38,6.40
2014,04,11,06,39,6.50
2014,04,11,06,40,6.60
2014,04,11,06,41,6.60
2014,04,11,06,42,6.60
2014,04,11,06,43,6.60
2014,04,11,06,44,6.60
2014,04,11,06,45,6.60
2014,04,11,06,46,6.60
2014,04,11,06,47,6.70
2014,04,11,06,48,6.80
2014,04,11,06,49,6.80
2014,04,11,06,50,6.80
2014,04,11,06,51,6.90
2014,04,11,06,52,7.00
2014,04,11,06,53,7.10
2014,04,11,06,54,7.10
2014,04,11,06,55,7.30
2014,04,11,06,56,7.40
2014,04,11,06,57,7.50
2014,04,11,06,58,7.60
2014,04,11,06,59,7.70
2014,04,11,07,00,7.80
2014,04,11,07,01,7.90
2014,04,11,07,02,8.00
2014,04,11,07,03,8.10
2014,04,11,07,04,8.20
2014,04,11,07,05,8.20
2014,04,11,07,06,8.30
2014,04,11,07,07,8.30
2014,04,11,07,08,8.40
2014,04,11,07,09,8.40
2014,04,11,07,10,8.50
2014,04,11,07,11,8.50
2014,04,11,07,12,8.60
2014,04,11,07,13,8.60
2014,04,11,07,14,8.60
2014,04,11,07,15,8.70
2014,04,11,07,16,8.70
2014,04,11,07,17,8.70
2014,04,11,07,18,8.70
2014,04,11,07,19,8.70
2014,04,11,07,20,8.70
2014,04,11,07,21,8.70
2014,04,11,07,22,8.70
2014,04,11,07,23,8.70
2014,04,11,07,24,8.70
2014,04,11,07,25,8.70
2014,04,11,07,26,8.80
2014,04,11,07,27,8.80
2014,04,11,07,28,8.80
2014,04,11,07,29,8.80
2014,04,11,07,30,8.80
2014,04,11,07,31,8.80
2014,04,11,07,32,8.80
2014,04,11,07,33,8.80
2014,04,11,07,34,8.80
2014,04,11,07,35,8.80
2014,04,11,07,36,8.90
2014,04,11,07,37,8.90
2014,04,11,07,38,8.90
2014,04,11,07,39,8.90
2014,04,11,07,40,8.90
2014,04,11,07,41,8.90
2014,04,11,07,42,8.90
2014,04,11,07,43,8.90
2014,04,11,07,44,8.90
2014,04,11,07,45,9.00
2014,04,11,07,46,9.00
2014,04,11,07,47,9.00
2014,04,11,07,48,9.00
2014,04,11,07,49,9.00
2014,04,11,07,50,9.00
2014,04,11,07,51,9.10
2014,04,11,07,52,9.10
2014,04,11,07,53,9.10
2014,04,11,07,54,9.10
2014,04,11,07,55,9.10
2014,04,11,07,56,9.10
2014,04,11,07,57,9.20
2014,04,11,07,58,9.20
2014,04,11,07,59,9.20
2014,04,11,08,00,9.20
2014,04,11,08,01,9.20
2014,04,11,08,02,9.20
2014,04,11,08,03,9.20
2014,04,11,08,04,9.20
2014,04,11,08,05,9.20
2014,04,11,08,06,9.30
2014,04,11,08,07,9.30
2014,04,11,08,08,9.30
2014,04,11,08,09,9.40
2014,04,11,08,10,9.40
2014,04,11,08,11,9.40
2014,04,11,08,12,9.50
2014,04,11,08,13,9.50
2014,04,11,08,14,9.60
2014,04,11,08,15,9.60
2014,04,11,08,16,9.60
2014,04,11,08,17,9.60
2014,04,11,08,18,9.70
2014,04,11,08,19,9.70
2014,04,11,08,20,9.70
2014,04,11,08,21,9.70
2014,04,11,08,22,9.70
2014,04,11,08,23,9.70
2014,04,11,08,24,9.70
2014,04,11,08,25,9.70
2014,04,11,08,26,9.80
2014,04,11,08,27,9.80
2014,04,11,08,28,9.90
2014,04,11,08,29,9.90
2014,04,11,08,30,9.90
2014,04,11,08,31,9.90
2014,04,11,08,32,10.00
2014,04,11,08,33,10.10
2014,04,11,08,34,10.10
2014,04,11,08,35,10.10
2014,04,11,08,36,10.20
2014,04,11,08,37,10.20
2014,04,11,08,38,10.30
2014,04,11,08,39,10.30
2014,04,11,08,40,10.40
2014,04,11,08,41,10.40
2014,04,11,08,42,10.40
2014,04,11,08,43,10.50
2014,04,11,08,44,10.60
2014,04,11,08,45,10.60
2014,04,11,08,46,10.60
2014,04,11,08,47,10.70
2014,04,11,08,48,10.70
2014,04,11,08,49,10.70
2014,04,11,08,50,10.70
2014,04,11,08,51,10.70
2014,04,11,08,52,10.70
2014,04,11,08,53,10.70
2014,04,11,08,54,10.60
2014,04,11,08,55,10.60
2014,04,11,08,56,10.60
2014,04,11,08,57,10.60
2014,04,11,08,58,10.60
2014,04,11,08,59,10.60
2014,04,11,09,00,10.50
2014,04,11,09,01,10.40
2014,04,11,09,02,10.40
2014,04,11,09,03,10.40
2014,04,11,09,04,10.40
2014,04,11,09,05,10.40
2014,04,11,09,06,10.40
2014,04,11,09,07,10.40
2014,04,11,09,08,10.40
2014,04,11,09,09,10.40
2014,04,11,09,10,10.40
2014,04,11,09,11,10.40
2014,04,11,09,12,10.40
2014,04,11,09,13,10.40
2014,04,11,09,14,10.40
2014,04,11,09,15,10.40
2014,04,11,09,16,10.40
2014,04,11,09,17,10.40
2014,04,11,09,18,10.40
2014,04,11,09,19,10.50
2014,04,11,09,20,10.60
2014,04,11,09,21,10.60
2014,04,11,09,22,10.70
2014,04,11,09,23,10.80
2014,04,11,09,24,10.90
2014,04,11,09,25,10.90
2014,04,11,09,26,11.00
2014,04,11,09,27,11.10
2014,04,11,09,28,11.20
2014,04,11,09,29,11.30
2014,04,11,09,30,11.40
2014,04,11,09,31,11.50
2014,04,11,09,32,11.60
2014,04,11,09,33,11.60
2014,04,11,09,34,11.70
2014,04,11,09,35,11.70
2014,04,11,09,36,11.80
2014,04,11,09,37,11.80
2014,04,11,09,38,11.80
2014,04,11,09,39,11.80
2014,04,11,09,40,11.80
2014,04,11,09,41,11.90
2014,04,11,09,42,11.90
2014,04,11,09,43,11.90
2014,04,11,09,44,11.90
2014,04,11,09,45,11.90
2014,04,11,09,46,11.90
2014,04,11,09,47,11.90
2014,04,11,09,48,12.00
2014,04,11,09,49,12.00
2014,04,11,09,50,12.00
2014,04,11,09,51,12.10
2014,04,11,09,52,12.10
2014,04,11,09,53,12.10
2014,04,11,09,54,12.20
2014,04,11,09,55,12.20
2014,04,11,09,56,12.30
2014,04,11,09,57,12.30
2014,04,11,09,58,12.30
2014,04,11,09,59,12.40
2014,04,11,10,00,12.40
2014,04,11,10,01,12.50
2014,04,11,10,02,12.50
2014,04,11,10,03,12.60
2014,04,11,10,04,12.60
2014,04,11,10,05,12.70
2014,04,11,10,06,12.70
2014,04,11,10,07,12.70
2014,04,11,10,08,12.80
2014,04,11,10,09,12.80
2014,04,11,10,10,12.80
2014,04,11,10,11,12.90
2014,04,11,10,12,13.00
2014,04,11,10,13,13.10
2014,04,11,10,14,13.10
2014,04,11,10,15,13.10
2014,04,11,10,16,13.10
2014,04,11,10,17,13.10
2014,04,11,10,18,13.20
2014,04,11,10,19,13.20
2014,04,11,10,20,13.20
2014,04,11,10,21,13.20
2014,04,11,10,22,13.20
2014,04,11,10,23,13.20
2014,04,11,10,24,13.20
2014,04,11,10,25,13.20
2014,04,11,10,26,13.30
2014,04,11,10,27,13.30
2014,04,11,10,28,13.30
2014,04,11,10,29,13.40
2014,04,11,10,30,13.40
2014,04,11,10,31,13.40
2014,04,11,10,32,13.50
2014,04,11,10,33,13.50
2014,04,11,10,34,13.60
2014,04,11,10,35,13.60
2014,04,11,10,36,13.60
2014,04,11,10,37,13.70
2014,04,11,10,38,13.70
2014,04,11,10,39,13.70
2014,04,11,10,40,13.70
2014,04,11,10,41,13.70
2014,04,11,10,42,13.70
2014,04,11,10,43,13.70
2014,04,11,10,44,13.60
2014,04,11,10,45,13.60
2014,04,11,10,46,13.60
2014,04,11,10,47,13.60
2014,04,11,10,48,13.70
2014,04,11,10,49,13.70
2014,04,11,10,50,13.70
2014,04,11,10,51,13.70
2014,04,11,10,52,13.70
2014,04,11,10,53,13.70
2014,04,11,10,54,13.70
2014,04,11,10,55,13.70
2014,04,11,10,56,13.80
2014,04,11,10,57,13.80
2014,04,11,10,58,13.90
2014,04,11,10,59,13.90
2014,04,11,11,00,14.00
2014,04,11,11,01,14.10
2014,04,11,11,02,14.10
2014,04,11,11,03,14.20
2014,04,11,11,04,14.30
2014,04,11,11,05,14.40
2014,04,11,11,06,14.40
2014,04,11,11,07,14.50
2014,04,11,11,08,14.60
2014,04,11,11,09,14.60
2014,04,11,11,10,14.70
2014,04,11,11,11,14.70
2014,04,11,11,12,14.70
2014,04,11,11,13,14.70
2014,04,11,11,14,14.80
2014,04,11,11,15,14.60
2014,04,11,11,16,14.50
2014,04,11,11,17,14.50
2014,04,11,11,18,14.40
2014,04,11,11,19,14.40
2014,04,11,11,20,14.40
2014,04,11,11,21,14.40
2014,04,11,11,22,14.40
2014,04,11,11,23,14.40
2014,04,11,11,24,14.40
2014,04,11,11,25,14.40
2014,04,11,11,26,14.50
2014,04,11,11,27,14.50
2014,04,11,11,28,14.50
2014,04,11,11,29,14.60
2014,04,11,11,30,14.60
2014,04,11,11,31,14.70
2014,04,11,11,32,14.70
2014,04,11,11,33,14.80
2014,04,11,11,34,14.80
2014,04,11,11,35,14.80
2014,04,11,11,36,14.80
2014,04,11,11,37,14.80
2014,04,11,11,38,14.80
2014,04,11,11,39,14.80
2014,04,11,11,40,14.80
2014,04,11,11,41,14.80
2014,04,11,11,42,14.70
2014,04,11,11,43,14.70
2014,04,11,11,44,14.70
2014,04,11,11,45,14.70
2014,04,11,11,46,14.70
2014,04,11,11,47,14.70
2014,04,11,11,48,14.70
2014,04,11,11,49,14.80
2014,04,11,11,50,14.80
2014,04,11,11,51,14.80
2014,04,11,11,52,14.80
2014,04,11,11,53,14.80
2014,04,11,11,54,14.80
2014,04,11,11,55,14.80
2014,04,11,11,56,14.80
2014,04,11,11,57,14.90
2014,04,11,11,58,14.90
2014,04,11,11,59,14.90
2014,04,11,12,00,14.90
2014,04,11,12,01,15.00
2014,04,11,12,02,15.00
2014,04,11,12,03,15.10
2014,04,11,12,04,15.10
2014,04,11,12,05,15.00
2014,04,11,12,06,15.10
2014,04,11,12,07,15.10
2014,04,11,12,08,15.10
2014,04,11,12,09,15.10
2014,04,11,12,10,15.20
2014,04,11,12,11,15.30
2014,04,11,12,12,15.30
2014,04,11,12,13,15.30
2014,04,11,12,14,15.40
2014,04,11,12,15,15.40
2014,04,11,12,16,15.40
2014,04,11,12,17,15.40
2014,04,11,12,18,15.40
2014,04,11,12,19,15.40
2014,04,11,12,20,15.30
2014,04,11,12,21,15.30
2014,04,11,12,22,15.30
2014,04,11,12,23,15.30
2014,04,11,12,24,15.30
2014,04,11,12,25,15.30
2014,04,11,12,26,15.20
2014,04,11,12,27,15.20
2014,04,11,12,28,15.30
2014,04,11,12,29,15.30
2014,04,11,12,30,15.30
2014,04,11,12,31,15.30
2014,04,11,12,32,15.30
2014,04,11,12,33,15.30
2014,04,11,12,34,15.30
2014,04,11,12,35,15.30
2014,04,11,12,36,15.30
2014,04,11,12,37,15.30
2014,04,11,12,38,15.30
2014,04,11,12,39,15.40
2014,04,11,12,40,15.40
2014,04,11,12,41,15.40
2014,04,11,12,42,15.30
2014,04,11,12,43,15.30
2014,04,11,12,44,15.30
2014,04,11,12,45,15.30
2014,04,11,12,46,15.30
2014,04,11,12,47,15.30
2014,04,11,12,48,15.30
2014,04,11,12,49,15.30
2014,04,11,12,50,15.30
2014,04,11,12,51,15.30
2014,04,11,12,52,15.40
2014,04,11,12,53,15.50
2014,04,11,12,54,15.60
2014,04,11,12,55,15.70
2014,04,11,12,56,15.80
2014,04,11,12,57,15.80
2014,04,11,12,58,15.80
2014,04,11,12,59,15.90
2014,04,11,13,00,15.90
2014,04,11,13,01,15.80
2014,04,11,13,02,15.80
2014,04,11,13,03,15.90
2014,04,11,13,04,15.90
2014,04,11,13,05,15.80
2014,04,11,13,06,15.80
2014,04,11,13,07,15.80
2014,04,11,13,08,15.80
2014,04,11,13,09,15.80
2014,04,11,13,10,15.80
2014,04,11,13,11,15.80
2014,04,11,13,12,15.80
2014,04,11,13,13,15.80
2014,04,11,13,14,15.70
2014,04,11,13,15,15.70
2014,04,11,13,16,15.70
2014,04,11,13,17,15.70
2014,04,11,13,18,15.70
2014,04,11,13,19,15.80
2014,04,11,13,20,15.80
2014,04,11,13,21,15.90
2014,04,11,13,22,15.90
2014,04,11,13,23,16.10
2014,04,11,13,24,16.10
2014,04,11,13,25,16.10
2014,04,11,13,26,16.10
2014,04,11,13,27,16.10
2014,04,11,13,28,16.00
2014,04,11,13,29,15.90
2014,04,11,13,30,15.70
2014,04,11,13,31,15.60
2014,04,11,13,32,15.50
2014,04,11,13,33,15.50
2014,04,11,13,34,15.50
2014,04,11,13,35,15.50
2014,04,11,13,36,15.40
2014,04,11,13,37,15.30
2014,04,11,13,38,15.30
2014,04,11,13,39,15.30
2014,04,11,13,40,15.30
2014,04,11,13,41,15.30
2014,04,11,13,42,15.30
2014,04,11,13,43,15.30
2014,04,11,13,44,15.20
2014,04,11,13,45,15.20
2014,04,11,13,46,15.20
2014,04,11,13,47,15.20
2014,04,11,13,48,15.30
2014,04,11,13,49,15.30
2014,04,11,13,50,15.30
2014,04,11,13,51,15.30
2014,04,11,13,52,15.30
2014,04,11,13,53,15.30
2014,04,11,13,54,15.40
2014,04,11,13,55,15.30
2014,04,11,13,56,15.30
2014,04,11,13,57,15.30
2014,04,11,13,58,15.30
2014,04,11,13,59,15.30
2014,04,11,14,00,15.30
2014,04,11,14,01,15.30
2014,04,11,14,02,15.30
2014,04,11,14,03,15.30
2014,04,11,14,04,15.20
2014,04,11,14,05,15.10
2014,04,11,14,06,15.10
2014,04,11,14,07,15.00
2014,04,11,14,08,14.90
2014,04,11,14,09,14.90
2014,04,11,14,10,14.90
2014,04,11,14,11,14.90
2014,04,11,14,12,15.00
2014,04,11,14,13,15.00
2014,04,11,14,14,15.10
2014,04,11,14,15,15.10
2014,04,11,14,16,15.10
2014,04,11,14,17,15.10
2014,04,11,14,18,15.10
2014,04,11,14,19,15.10
2014,04,11,14,20,15.00
2014,04,11,14,21,15.00
2014,04,11,14,22,15.00
2014,04,11,14,23,15.00
2014,04,11,14,24,15.00
2014,04,11,14,25,15.00
2014,04,11,14,26,15.00
2014,04,11,14,27,15.00
2014,04,11,14,28,15.00
2014,04,11,14,29,15.00
2014,04,11,14,30,15.00
2014,04,11,14,31,15.00
2014,04,11,14,32,15.00
2014,04,11,14,33,15.00
2014,04,11,14,34,15.10
2014,04,11,14,35,15.20
2014,04,11,14,36,15.30
2014,04,11,14,37,15.30
2014,04,11,14,38,15.30
2014,04,11,14,39,15.40
2014,04,11,14,40,15.50
2014,04,11,14,41,15.50
2014,04,11,14,42,15.60
2014,04,11,14,43,15.70
2014,04,11,14,44,15.70
2014,04,11,14,45,15.80
2014,04,11,14,46,15.90
2014,04,11,14,47,16.00
2014,04,11,14,48,16.10
2014,04,11,14,49,16.10
2014,04,11,14,50,16.10
2014,04,11,14,51,16.10
2014,04,11,14,52,16.10
2014,04,11,14,53,16.10
2014,04,11,14,54,16.10
2014,04,11,14,55,16.10
2014,04,11,14,56,16.20
2014,04,11,14,57,16.30
2014,04,11,14,58,16.30
2014,04,11,14,59,16.40
2014,04,11,15,00,16.40
2014,04,11,15,01,16.40
2014,04,11,15,02,16.40
2014,04,11,15,03,16.40
2014,04,11,15,04,16.40
2014,04,11,15,05,16.60
2014,04,11,15,06,16.60
2014,04,11,15,07,16.70
2014,04,11,15,08,16.70
2014,04,11,15,09,16.70
2014,04,11,15,10,16.70
2014,04,11,15,11,16.70
2014,04,11,15,12,16.70
2014,04,11,15,13,16.70
2014,04,11,15,14,16.60
2014,04,11,15,15,16.60
2014,04,11,15,16,16.60
2014,04,11,15,17,16.40
2014,04,11,15,18,16.40
2014,04,11,15,19,16.40
2014,04,11,15,20,16.40
2014,04,11,15,21,16.30
2014,04,11,15,22,16.20
2014,04,11,15,23,16.10
2014,04,11,15,24,16.10
2014,04,11,15,25,16.10
2014,04,11,15,26,16.10
2014,04,11,15,27,16.20
2014,04,11,15,28,16.20
2014,04,11,15,29,16.30
2014,04,11,15,30,16.30
2014,04,11,15,31,16.30
2014,04,11,15,32,16.30
2014,04,11,15,33,16.40
2014,04,11,15,34,16.40
2014,04,11,15,35,16.40
2014,04,11,15,36,16.40
2014,04,11,15,37,16.40
2014,04,11,15,38,16.40
2014,04,11,15,39,16.40
2014,04,11,15,40,16.40
2014,04,11,15,41,16.40
2014,04,11,15,42,16.40
2014,04,11,15,43,16.40
2014,04,11,15,44,16.40
2014,04,11,15,45,16.30
2014,04,11,15,46,16.30
2014,04,11,15,47,16.20
2014,04,11,15,48,16.10
2014,04,11,15,49,16.10
2014,04,11,15,50,16.10
2014,04,11,15,51,16.10
2014,04,11,15,52,16.10
2014,04,11,15,53,16.10
2014,04,11,15,54,16.10
2014,04,11,15,55,16.10
2014,04,11,15,56,16.10
2014,04,11,15,57,16.10
2014,04,11,15,58,16.10
2014,04,11,15,59,16.10
2014,04,11,16,00,16.10
2014,04,11,16,01,16.10
2014,04,11,16,02,16.10
2014,04,11,16,03,16.00
2014,04,11,16,04,15.90
2014,04,11,16,05,15.90
2014,04,11,16,06,15.80
2014,04,11,16,07,15.80
2014,04,11,16,08,15.90
2014,04,11,16,09,15.90
2014,04,11,16,10,15.90
2014,04,11,16,11,15.90
2014,04,11,16,12,15.90
2014,04,11,16,13,15.90
2014,04,11,16,14,16.00
2014,04,11,16,15,16.10
2014,04,11,16,16,16.10
2014,04,11,16,17,16.10
2014,04,11,16,18,16.10
2014,04,11,16,19,16.10
2014,04,11,16,20,16.20
2014,04,11,16,21,16.20
2014,04,11,16,22,16.20
2014,04,11,16,23,16.10
2014,04,11,16,24,16.00
2014,04,11,16,25,15.80
2014,04,11,16,26,15.80
2014,04,11,16,27,15.70
2014,04,11,16,28,15.70
2014,04,11,16,29,15.70
2014,04,11,16,30,15.70
2014,04,11,16,31,15.70
2014,04,11,16,32,15.80
2014,04,11,16,33,15.80
2014,04,11,16,34,15.80
2014,04,11,16,35,15.80
2014,04,11,16,36,15.80
2014,04,11,16,37,15.80
2014,04,11,16,38,15.80
2014,04,11,16,39,15.70
2014,04,11,16,40,15.70
2014,04,11,16,41,15.70
2014,04,11,16,42,15.70
2014,04,11,16,43,15.70
2014,04,11,16,44,15.80
2014,04,11,16,45,15.70
2014,04,11,16,46,15.70
2014,04,11,16,47,15.70
2014,04,11,16,48,15.70
2014,04,11,16,49,15.70
2014,04,11,16,50,15.70
2014,04,11,16,51,15.70
2014,04,11,16,52,15.70
2014,04,11,16,53,15.70
2014,04,11,16,54,15.70
2014,04,11,16,55,15.60
2014,04,11,16,56,15.50
2014,04,11,16,57,15.50
2014,04,11,16,58,15.50
2014,04,11,16,59,15.50
2014,04,11,17,00,15.50
2014,04,11,17,01,15.50
2014,04,11,17,02,15.50
2014,04,11,17,03,15.60
2014,04,11,17,04,15.60
2014,04,11,17,05,15.60
2014,04,11,17,06,15.50
2014,04,11,17,07,15.50
2014,04,11,17,08,15.50
2014,04,11,17,09,15.50
2014,04,11,17,10,15.50
2014,04,11,17,11,15.50
2014,04,11,17,12,15.50
2014,04,11,17,13,15.40
2014,04,11,17,14,15.40
2014,04,11,17,15,15.30
2014,04,11,17,16,15.30
2014,04,11,17,17,15.30
2014,04,11,17,18,15.30
2014,04,11,17,19,15.30
2014,04,11,17,20,15.30
2014,04,11,17,21,15.30
2014,04,11,17,22,15.30
2014,04,11,17,23,15.30
2014,04,11,17,24,15.30
2014,04,11,17,25,15.30
2014,04,11,17,26,15.30
2014,04,11,17,27,15.20
2014,04,11,17,28,15.20
2014,04,11,17,29,15.10
2014,04,11,17,30,15.10
2014,04,11,17,31,15.10
2014,04,11,17,32,15.00
2014,04,11,17,33,15.00
2014,04,11,17,34,15.00
2014,04,11,17,35,14.90
2014,04,11,17,36,14.90
2014,04,11,17,37,14.90
2014,04,11,17,38,14.90
2014,04,11,17,39,14.90
2014,04,11,17,40,14.90
2014,04,11,17,41,14.90